Location: Haliburton Scout Reserve
(45.0900°N, 78.3200°W)
Time: 18:10:06
(UTC-04:00)

Courier 1B Rocket - Pass Details

Date: 13 February 2023
Orbit: 920 x 1202 km, 28.2° (Epoch: 22 March)

Event Time Altitude Azimuth Distance (km) Brightness Sun altitude
Rises 15:08:52 0° 244° (WSW) 3,816 9.3 21.2°
Reaches altitude 10° 15:12:40 10° 226° (SW) 2,803 9.7 20.7°
Maximum altitude 15:16:48 17° 187° (S) 2,263 8.0 20.2°
Drops below altitude 10° 15:20:49 10° 149° (SSE) 2,688 7.6 19.7°
Sets 15:24:21 0° 130° (SE) 3,595 7.9 19.3°
